Location: Martley
(52.2333°N, 2.3667°W)
Time: 04:34:27
(UTC+00:00)

Meteor 1-25 Rocket - Pass Details

Date: 11 December 2019
Orbit: 838 x 890 km, 81.2° (Epoch: 23 January)

Event Time Altitude Azimuth Distance (km) Brightness Sun altitude
Rises 05:34:24 0° 195° (SSW) 3,398 7.3 -22.2°
Reaches altitude 10° 05:36:48 10° 196° (SSW) 2,473 6.6 -21.8°
Maximum altitude 05:42:25 79° 284° (WNW) 881 4.1 -21.0°
Drops below altitude 10° 05:48:11 10° 11° (NNE) 2,526 6.7 -20.1°
Sets 05:50:39 0° 13° (NNE) 3,476 7.4 -19.7°
